Jacksonville Craig, FL

12:12 PM EDT on September 19, 2017 (GMT -0400)
Craig Municipal

Weather History for KCRG - October, 2012

Change the Weather History Date:

Wednesday, October 31, 2012

  Actual Average Record
Temperature  
Mean Temperature 61 °F -  
Max Temperature 72 °F 75 °F 84 °F (1996)
Min Temperature 51 °F 57 °F 51 °F (2012)
Degree Days  
Heating Degree Days 4    
Growing Degree Days 11 (Base 50)    
Moisture  
Dew Point 35 °F    
Average Humidity 38    
Maximum Humidity 56    
Minimum Humidity 27    
Precipitation  
Precipitation 0.00 in - - ()
Sea Level Pressure  
Sea Level Pressure 29.94 in    
Wind  
Wind Speed 11 mph (West)    
Max Wind Speed 17 mph    
Max Gust Speed 29 mph    
Visibility 10 miles    
Events      
Averages and records for this station are not official NWS values.
T = Trace of Precipitation, MM = Missing Value Source: NWS Daily Summary

Daily Weather History Graph

Daily Weather History Graph

Search for Another Location

Airport or City:

Trip Planner

Search our weather history database for the weather conditions in past years. The results will help you decide how hot, cold, wet, or windy it might be!

Date:

Astronomy

Oct. 31, 2012 Rise Set
Actual Time 7:39 AM EDT 6:38 PM EDT
Civil Twilight 7:15 AM EDT 7:03 PM EDT
Nautical Twilight 6:46 AM EDT 7:32 PM EDT
Astronomical Twilight 6:18 AM EDT 8:00 PM EDT
Moon 7:57 PM EDT (10/31) 9:12 AM EDT (10/31)
Length of Visible Light 11h 48m
Length of Day
10h 58m
Full, 97% of the Moon is Illuminated
Oct 31
Full
Nov 6
Last Quarter
Nov 13
New
Nov 20
First Quarter
Nov 28
Full

Hourly Weather History & Observations

Time (EDT) Temp. Dew Point Humidity Pressure Visibility Wind Dir Wind Speed Gust Speed Precip Events Conditions
12:53 AM 54.0 °F 30.9 °F 41% 29.93 in 10.0 mi West 10.4 mph - N/A   Clear
1:53 AM 54.0 °F 30.9 °F 41% 29.92 in 10.0 mi West 11.5 mph - N/A   Clear
2:53 AM 53.1 °F 30.0 °F 41% 29.93 in 10.0 mi West 8.1 mph - N/A   Clear
3:53 AM 53.1 °F 30.9 °F 43% 29.92 in 10.0 mi West 9.2 mph - N/A   Clear
4:53 AM 53.1 °F 32.0 °F 45% 29.93 in 10.0 mi West 8.1 mph - N/A   Clear
5:53 AM 52.0 °F 32.0 °F 47% 29.94 in 10.0 mi West 10.4 mph - N/A   Clear
6:53 AM 52.0 °F 33.1 °F 49% 29.96 in 10.0 mi West 8.1 mph - N/A   Clear
7:53 AM 51.1 °F 34.0 °F 52% 29.98 in 10.0 mi West 6.9 mph - N/A   Clear
8:53 AM 53.1 °F 34.0 °F 48% 29.99 in 10.0 mi West 9.2 mph - N/A   Clear
9:53 AM 57.0 °F 33.1 °F 40% 30.00 in 10.0 mi West 9.2 mph - N/A   Clear
10:53 AM 61.0 °F 32.0 °F 34% 29.99 in 10.0 mi West 11.5 mph - N/A   Clear
11:53 AM 64.0 °F 30.9 °F 29% 29.98 in 10.0 mi West 13.8 mph 20.7 mph N/A   Clear
12:53 PM 66.9 °F 33.1 °F 28% 29.96 in 10.0 mi WNW 15.0 mph 27.6 mph N/A   Clear
1:53 PM 70.0 °F 34.0 °F 27% 29.93 in 10.0 mi West 15.0 mph 26.5 mph N/A   Clear
2:07 PM 69.8 °F 33.8 °F 27% 29.92 in 2.0 mi West 17.3 mph 26.5 mph N/A   Haze
2:16 PM 69.8 °F 33.8 °F 27% 29.92 in 10.0 mi West 15.0 mph 27.6 mph N/A   Clear
2:53 PM 71.1 °F 35.1 °F 27% 29.91 in 10.0 mi West 12.7 mph 20.7 mph N/A   Clear
3:53 PM 71.1 °F 36.0 °F 28% 29.89 in 10.0 mi West 13.8 mph 25.3 mph N/A   Clear
4:53 PM 71.1 °F 36.0 °F 28% 29.88 in 10.0 mi West 13.8 mph 28.8 mph N/A   Clear
5:53 PM 70.0 °F 37.9 °F 31% 29.89 in 10.0 mi West 8.1 mph - N/A   Clear
6:53 PM 68.0 °F 39.9 °F 36% 29.90 in 10.0 mi West 8.1 mph - N/A   Clear
7:53 PM 66.0 °F 41.0 °F 40% 29.92 in 10.0 mi WSW 8.1 mph - N/A   Clear
8:53 PM 64.9 °F 42.1 °F 43% 29.93 in 10.0 mi WSW 10.4 mph - N/A   Clear
9:53 PM 64.0 °F 44.1 °F 48% 29.95 in 10.0 mi WSW 10.4 mph - N/A   Clear
11:53 PM 63.0 °F 46.9 °F 56% 29.96 in 10.0 mi West 9.2 mph 18.4 mph N/A   Clear